Regional Weather Roundup
Issued by NWS

Home | Current Version | Previous Version | Text Only | Print | Product List | Glossary Off
Versions: 1 2 3 4 5 6 7 8 9 10 11 12 13 14 15 16 17 18 19 20 21 22 23 24 25 26 27 28 29 30 31 32 33 34 35 36 37 38 39 40 41 42 43 44 45 46 47 48 49

000
ASUS45 KBOU 050707
RWRCO

WEATHER ROUNDUP FOR COLORADO
NATIONAL WEATHER SERVICE DENVER/BOULDER CO
100 AM MDT SAT SEP 05 2015

NOTE: "FAIR" INDICATES FEW OR NO CLOUDS BELOW 12000 FEET WITH NO
SIGNIFICANT WEATHER AND/OR OBSTRUCTIONS TO VISIBILITY.

COZ001>005-013-030-031-050800-
...NORTHWEST COLORADO...

CITY           SKY/WX    TMP DP  RH WIND       PRES   REMARKS
CRAIG          PTCLDY    50  43  77 SW7       30.08R
HAYDEN         PTCLDY    54  41  62 S6        30.09R
MEEKER         MOCLDY    58  47  66 CALM      30.07S
MOUNT WERNER   NOT AVBL
STEAMBOAT SPGS PTCLDY    53  44  71 NW5       30.11S
WALDEN         CLOUDY    50  43  76 SE3       30.18F
$$

COZ006>008-011-050800-
...WEST CENTRAL VALLEYS...

CITY           SKY/WX    TMP DP  RH WIND       PRES   REMARKS
GRAND JUNCTION HVY RAIN  59  58  96 SE5       30.07R
MONTROSE       CLOUDY    59  54  83 W15       30.13R
EAGLE          CLOUDY    55  54  94 E6        30.15S
RIFLE          CLOUDY    56  54  93 S3        30.05S
DELTA          RAIN      63  57  81 SW12      30.09R
NUCLA          LGT RAIN  54  52  94 NE8       30.20S
$$

COZ017>023-064>068-050800-
...SOUTHWEST COLORADO...

CITY           SKY/WX    TMP DP  RH WIND       PRES   REMARKS
DURANGO        HVY RAIN  56  55  97 SE7       30.20S FOG
CORTEZ         MOCLDY    58  56  93 NE5       30.13F
PAGOSA SPRINGS RAIN      55  55 100 CALM      30.27S
TELLURIDE      CLOUDY    54  46  73 CALM      30.31S
WOLF CREEK PAS NOT AVBL
$$

COZ009-010-012-014-032>034-037-058>063-050800-
...CENTRAL COLORADO...

CITY           SKY/WX    TMP DP  RH WIND       PRES   REMARKS
ASPEN          CLOUDY    52  48  86 SW5       30.18S
BUENA VISTA    CLOUDY    53  49  89 W3        30.23S
COPPER MTN     CLOUDY    46  36  66 S13G24    30.44F
BERTHOUD PASS  CLOUDY    37  28  70 W17G26    30.47S
COTTONWOOD PAS CLOUDY    54  41  62 W3        30.33S
GUNNISON       CLOUDY    54  50  87 NE5       30.25S
KREMMLING      CLOUDY    52  48  87 CALM      30.18F
LEADVILLE      CLOUDY    44  44 100 CALM      30.32S
MONARCH PASS   LGT RAIN  41  37  87 SW14      30.56S VSB 1/2
SALIDA         CLOUDY    60  51  70 W3        30.27S
SUNLIGHT       CLOUDY    46  45  93 CALM      30.39R
WILKERSON PASS SNOW      43  43 100 W13       30.41F VSB 1/2
$$

COZ069>075-050800-
...SAN LUIS VALLEY/SANGRE DE CRISTO MOUNTAINS...

CITY           SKY/WX    TMP DP  RH WIND       PRES   REMARKS
ALAMOSA        CLOUDY    56  49  77 S12       30.21S
LA VETA PASS   CLOUDY    46  43  87 S9G25     30.33S
SAGUACHE       DRIZZLE   54  54 100 CALM      30.25S
$$

COZ035-036-038>040-050800-
...NORTHERN COLORADO FRONT RANGE...

CITY           SKY/WX    TMP DP  RH WIND       PRES   REMARKS
DENVER INTL AP MOCLDY    64  51  62 S7        29.97F
DMNS CITY PARK   N/A     67  51  55 E5G12     29.96F
AURORA         MOCLDY    66  51  60 NE2       29.99F
FRONT RANGE AP MOCLDY    64  46  52 W6        29.99S
ERIE MUNI ARPT CLOUDY    65  51  60 CALM      29.94F
BOULDER MUN AP CLOUDY    70  46  43 CALM      29.95S
CENTENNIAL     CLOUDY    67  50  54 S7        30.00F
BROOMFIELD     CLOUDY    70  43  37 CALM      29.98F
FORT COLLINS   CLOUDY    68  48  49 NE3       29.94F
LONGMONT       CLOUDY    67  50  54 CALM      29.94F
$$

COZ041-046-047-076>085-087-088-050800-
...PIKES PEAK/PALMER DIVIDE AND SOUTHERN FOOTHILLS...

CITY           SKY/WX    TMP DP  RH WIND       PRES   REMARKS
COLO. SPRINGS  MOCLDY    61  49  64 NE10      30.03F
A. F. ACADEMY  MOCLDY    67  45  45 VRB2      30.06S
ELLICOTT       PTCLDY   N/A N/A N/A S9        30.03F
FALCON         PTCLDY    59  47  65 N5        30.09F
FORT CARSON    MOCLDY    69  49  48 SW6       30.00F
LIMON          PTCLDY    65  50  58 S7        29.99R
MONUMENT HILL  PTCLDY    57  46  67 SW6       30.10F
TRINIDAD       MOCLDY    71  48  43 SW17      30.07F
$$

COZ042>045-048>051-090-091-050800-
...NORTHEAST COLORADO...

CITY           SKY/WX    TMP DP  RH WIND       PRES   REMARKS
GREELEY ARPT   CLOUDY    64  54  68 NW6       29.92F
AKRON          CLOUDY    70  56  61 CALM      29.90F
BURLINGTON     CLOUDY    77  47  34 S12       29.94R
WRAY           CLOUDY    80  51  36 S16G22    29.86R
STERLING       CLOUDY    66  61  82 CALM      29.85F
HOLYOKE        CLOUDY    73  59  60 NW6       29.87R
FORT MORGAN    CLOUDY    67  49  53 N5        29.91S
$$

COZ086-089-092>099-050800-
...SOUTHEAST COLORADO...

CITY           SKY/WX    TMP DP  RH WIND       PRES   REMARKS
PUEBLO         MOCLDY    69  52  54 SW8       29.96R
LA JUNTA       MOCLDY    77  49  37 SW9       29.95S
LAMAR          CLOUDY    77  50  38 S8        29.91S
SPRINGFIELD      N/A     72  51  47 S9        30.00S
$$



USA.gov is the U.S. government's official web portal to all federal, state and local government web resources and services.